Japanese version Home page |
Updated on July 20, 2014 |
|
Orbital ElementsEpoch 2014 May 23.0 TT = JDT 2456800.5 T 2014 June 10.32040 TT MPC q 1.1235693 (2000.0) P Q n 0.13103065 Peri. 333.79299 +0.96825181 -0.17498032 a 3.8390237 Node 37.67918 +0.24776754 +0.76651080 e 0.7073294 Incl. 16.98172 -0.03316126 +0.61793453 P 7.52 From 67 observations 1991 Nov. 27-2014 June 15, mean residual 0".8. Nongravitational parameters A1 = -0.38, A2 = -0.0084.
|
Finding Charts
|
Magnitudes Graphm1 = 13 + 5 log d + 40 log r
|
The orbital elements are published on M.P.E.C. 2014-N57.
|